Location: Baia Mare
(47.6567°N, 23.5850°E)
Time: 17:43:53
(UTC+03:00)

ISS - Pass Details

Date: 20 July 2018
Orbit: 402 x 408 km, 51.6° (Epoch: 20 July)

Event Time Altitude Azimuth Distance (km) Brightness Sun altitude
Rises 03:15:55 0° 292° (WNW) 2,330 0.0 -17.8°
Reaches altitude 10° 03:18:01 10° 296° (WNW) 1,470 -1.0 -17.6°
Maximum altitude 03:21:17 60° 17° (NNE) 473 -3.3 -17.4°
Drops below altitude 10° 03:24:33 10° 99° (E) 1,468 -0.8 -17.1°
Sets 03:26:39 0° 103° (ESE) 2,327 0.2 -17.0°
